Погода в Уразаеве

Россия / Республика Татарстан     55°45′18″N   53°56′07″E
темп.,
°C
ветер,
м/с
пор.,
м/с
влажн.,
%
обл.,
%
осадки,
мм/ч
давл.,
гПа
погр.,
м
28 октября, чт
чт2800:00+3юз7156799 0.0 1012546
03:00+3юз81561100 0.0 1010649
06:00+3юз91562100 0.0 1009888
09:00+2зюз81596100 0.1 1010607
12:00+4зюз71296100 0.0 1010867
15:00+6зюз61180100 0.1 1011988
18:00+5зюз61281100 0.1 1012564
21:00+6зюз71179100 0.1 1012798
29 октября, пт
пт2900:00+5з61089100 0.8 1012970
03:00+1ссв7119599 2.3 1016492
06:00−2ссв59704 0.1 1020552
09:00−2ссв46590 0.1 1024594
12:000с33424 0.0 1026812
15:000ссз11462 0.0 102738
18:00−1зюз1150100 0.0 102810
21:00−1ююз3554100 0.0 1028135
30 октября, сб
сб3000:00−1ююз4954100 0.0 1027290
03:000ююз51251100 0.0 1025448
06:00+1юз71564100 0.1 1022561
09:00+3зюз91779100 0.1 1020690
12:00+7зюз91576100 0.0 1018955
15:00+7з81383100 0.0 1019866
18:00+6з71485100 0.1 1020492
21:00+7з6128598 0.1 1020435
31 октября, вс
вс3100:00+6з41088100 0.0 1022355
03:00+6з4791100 0.0 1023249
06:00+6з3792100 0.0 1024247
09:00+7з368562 0.0 1025277
12:00+9з5668100 0.0 10251045
15:00+8юз487783 0.0 1024278
18:00+8зюз71288100 0.0 1023521
21:00+7зюз6138856 0.0 1022422
1 ноября, пн
пн100:00+6зюз6128248 0.0 1022369
03:00+5з5118898 0.0 1022310
06:00+4зюз5118982 0.0 1021286
09:00+6з61181100 0.0 1022415
12:00+8з6116979 0.0 1021553
15:00+8з6126894 0.0 1020493
18:00+6з6137556 0.0 1020395
21:00+5з5117984 0.0 1020305